Private Wetterstation Wechselburg
Wetterdaten: Donnerstag, 02.12.2021
Datum Zeit Temp. +2m Bodentemp. Temp.+5cm Temp. Wind Windchill X Diff Temp. Feuchte +2m Feuchte +5cm Luftdruck Regen Wind Richtung Richtung Sonnenschein Taupunkt Windchill Windben
02.12.2021 00:00 5,2 C 7,9 C 4,0 C 4,4 C 2,1 C 0,0 C 83 % 90 % 995,1 hPa 0,0 l/m 11,3 km/h (2 Bft) SW 225 0 min 2,6 C -1,1 C 12,7 km/h (3 Bft)
02.12.2021 00:05 5,2 C 7,9 C 3,9 C 4,5 C 2,3 C 0,0 C 83 % 90 % 995,1 hPa 0,0 l/m 10,3 km/h (2 Bft) S-SW 202 0 min 2,6 C -0,6 C 13,2 km/h (3 Bft)
02.12.2021 00:10 5,2 C 7,9 C 3,9 C 4,5 C 2,2 C 0,0 C 84 % 90 % 995,3 hPa 0,0 l/m 10,5 km/h (2 Bft) SW 225 0 min 2,7 C -0,8 C 16,3 km/h (3 Bft)
02.12.2021 00:15 5,1 C 7,9 C 3,9 C 4,4 C 2,4 C 0,0 C 84 % 91 % 995,3 hPa 0,0 l/m 9,8 km/h (2 Bft) SW 225 0 min 2,6 C -0,4 C 21,1 km/h (4 Bft)
02.12.2021 00:20 5,2 C 7,9 C 4,0 C 4,6 C 2,6 C 0,0 C 84 % 91 % 995,3 hPa 0,0 l/m 10,0 km/h (2 Bft) SW 225 0 min 2,7 C -0,2 C 16,3 km/h (3 Bft)
02.12.2021 00:25 5,1 C 7,9 C 4,0 C 4,6 C 3,0 C 0,0 C 84 % 91 % 995,3 hPa 0,0 l/m 8,5 km/h (2 Bft) SW 225 0 min 2,6 C 0,6 C 16,7 km/h (3 Bft)
02.12.2021 00:30 5,2 C 7,9 C 4,0 C 4,7 C 3,1 C 0,0 C 84 % 91 % 995,6 hPa 0,0 l/m 8,5 km/h (2 Bft) SW 225 0 min 2,7 C 0,8 C 9,7 km/h (2 Bft)
02.12.2021 00:35 5,1 C 7,9 C 4,0 C 4,7 C 3,3 C 0,0 C 84 % 91 % 995,6 hPa 0,0 l/m 8,4 km/h (2 Bft) S 180 0 min 2,6 C 1,0 C 6,4 km/h (2 Bft)
02.12.2021 00:40 5,2 C 7,9 C 4,1 C 4,8 C 3,4 C 0,0 C 84 % 91 % 995,6 hPa 0,0 l/m 7,7 km/h (2 Bft) W-SW 247 0 min 2,7 C 1,3 C 9,7 km/h (2 Bft)
02.12.2021 00:45 5,3 C 7,9 C 4,1 C 4,7 C 3,4 C 0,0 C 84 % 91 % 995,6 hPa 0,0 l/m 8,2 km/h (2 Bft) W-SW 247 0 min 2,8 C 1,2 C 8,0 km/h (2 Bft)
02.12.2021 00:50 5,2 C 7,9 C 4,1 C 4,6 C 3,4 C 0,0 C 84 % 91 % 995,6 hPa 0,0 l/m 8,5 km/h (2 Bft) SW 225 0 min 2,7 C 1,1 C 9,8 km/h (2 Bft)
02.12.2021 00:55 5,2 C 7,9 C 4,2 C 4,8 C 3,5 C 0,0 C 84 % 91 % 995,6 hPa 0,0 l/m 8,4 km/h (2 Bft) W-SW 247 0 min 2,7 C 1,3 C 11,1 km/h (2 Bft)
02.12.2021 01:00 5,2 C 7,9 C 4,2 C 4,9 C 3,6 C 0,0 C 84 % 91 % 995,6 hPa 0,0 l/m 8,2 km/h (2 Bft) SW 225 0 min 2,7 C 1,4 C 9,2 km/h (2 Bft)
02.12.2021 01:05 5,5 C 7,8 C 4,2 C 5,0 C 3,0 C 0,0 C 84 % 91 % 995,6 hPa 0,0 l/m 11,3 km/h (2 Bft) W-SW 247 0 min 3,0 C -0,0 C 24,9 km/h (4 Bft)
02.12.2021 01:10 5,5 C 7,8 C 4,2 C 4,9 C 2,8 C 0,0 C 83 % 90 % 995,9 hPa 0,0 l/m 13,2 km/h (3 Bft) W 270 0 min 2,8 C -0,6 C 13,0 km/h (3 Bft)
02.12.2021 01:15 5,5 C 7,8 C 4,2 C 4,9 C 2,7 C 0,0 C 82 % 90 % 995,9 hPa 0,0 l/m 13,5 km/h (3 Bft) SW 225 0 min 2,7 C -0,8 C 17,2 km/h (3 Bft)
02.12.2021 01:20 5,5 C 7,8 C 4,3 C 4,9 C 3,0 C 0,0 C 82 % 90 % 995,9 hPa 0,0 l/m 11,9 km/h (2 Bft) S-SW 202 0 min 2,7 C -0,1 C 14,8 km/h (3 Bft)
02.12.2021 01:25 5,6 C 7,8 C 4,3 C 5,1 C 3,2 C 0,0 C 81 % 90 % 995,9 hPa 0,0 l/m 11,9 km/h (2 Bft) SW 225 0 min 2,6 C 0,1 C 11,9 km/h (2 Bft)
02.12.2021 01:30 5,7 C 7,8 C 4,3 C 4,9 C 3,2 C 0,0 C 81 % 90 % 996,1 hPa 0,0 l/m 12,1 km/h (2 Bft) SW 225 0 min 2,7 C 0,1 C 25,3 km/h (4 Bft)
02.12.2021 01:35 5,6 C 7,8 C 4,4 C 5,1 C 3,0 C 0,0 C 80 % 88 % 996,1 hPa 0,0 l/m 13,7 km/h (3 Bft) W-SW 247 0 min 2,4 C -0,5 C 14,6 km/h (3 Bft)
02.12.2021 01:40 5,6 C 7,8 C 4,4 C 4,7 C 3,0 C 0,0 C 79 % 88 % 996,1 hPa 0,0 l/m 13,2 km/h (3 Bft) S-SW 202 0 min 2,3 C -0,4 C 13,2 km/h (3 Bft)
02.12.2021 01:45 5,5 C 7,8 C 4,2 C 5,0 C 3,2 C 0,0 C 78 % 88 % 996,1 hPa 0,0 l/m 10,5 km/h (2 Bft) W-SW 247 0 min 2,0 C 0,4 C 6,6 km/h (2 Bft)
02.12.2021 01:50 5,5 C 7,8 C 4,1 C 4,7 C 3,2 C 0,0 C 78 % 88 % 996,0 hPa 0,0 l/m 9,5 km/h (2 Bft) W-SW 247 0 min 2,0 C 0,6 C 6,9 km/h (2 Bft)
02.12.2021 01:55 5,5 C 7,8 C 4,0 C 4,9 C 2,7 C 0,0 C 78 % 88 % 996,0 hPa 0,0 l/m 10,3 km/h (2 Bft) W-SW 247 0 min 2,0 C -0,2 C 15,0 km/h (3 Bft)
02.12.2021 02:00 5,4 C 7,8 C 3,9 C 4,7 C 2,4 C 0,0 C 78 % 88 % 996,0 hPa 0,0 l/m 10,3 km/h (2 Bft) SW 225 0 min 1,9 C -0,5 C 8,2 km/h (2 Bft)
02.12.2021 02:05 5,2 C 7,8 C 3,7 C 4,5 C 2,6 C 0,0 C 78 % 88 % 996,0 hPa 0,0 l/m 8,4 km/h (2 Bft) S 180 0 min 1,7 C 0,2 C 8,7 km/h (2 Bft)
02.12.2021 02:10 5,1 C 7,8 C 3,6 C 4,5 C 2,7 C 0,0 C 78 % 88 % 996,2 hPa 0,0 l/m 7,9 km/h (2 Bft) SW 225 0 min 1,6 C 0,5 C 5,0 km/h (1 Bft)
02.12.2021 02:15 5,1 C 7,7 C 3,5 C 4,4 C 2,3 C 0,0 C 78 % 89 % 996,2 hPa 0,0 l/m 7,7 km/h (2 Bft) SW 225 0 min 1,6 C 0,1 C 6,1 km/h (2 Bft)
02.12.2021 02:20 4,9 C 7,7 C 3,4 C 4,0 C 2,3 C 0,0 C 78 % 88 % 996,2 hPa 0,0 l/m 7,1 km/h (2 Bft) N-NW 337 0 min 1,4 C 0,2 C 5,1 km/h (1 Bft)
02.12.2021 02:25 4,8 C 7,7 C 3,3 C 4,1 C 2,6 C 0,0 C 78 % 89 % 996,2 hPa 0,0 l/m 6,3 km/h (2 Bft) SW 225 0 min 1,3 C 0,9 C 9,5 km/h (2 Bft)
02.12.2021 02:30 4,8 C 7,7 C 3,2 C 4,0 C 2,5 C 0,0 C 79 % 89 % 996,6 hPa 0,0 l/m 6,1 km/h (2 Bft) SW 225 0 min 1,5 C 0,8 C 5,6 km/h (1 Bft)
02.12.2021 02:35 4,7 C 7,7 C 3,1 C 3,9 C 2,4 C 0,0 C 79 % 89 % 996,6 hPa 0,0 l/m 5,5 km/h (1 Bft) W-SW 247 0 min 1,4 C 0,9 C 5,0 km/h (1 Bft)
02.12.2021 02:40 4,6 C 7,7 C 3,1 C 3,8 C 2,2 C 0,0 C 79 % 89 % 996,6 hPa 0,0 l/m 5,8 km/h (2 Bft) SW 225 0 min 1,3 C 0,6 C 8,7 km/h (2 Bft)
02.12.2021 02:45 4,5 C 7,7 C 3,1 C 3,9 C 1,7 C 0,0 C 80 % 89 % 996,6 hPa 0,0 l/m 8,5 km/h (2 Bft) W-SW 247 0 min 1,4 C -0,9 C 10,9 km/h (2 Bft)
02.12.2021 02:50 4,6 C 7,7 C 3,1 C 3,9 C 1,5 C 0,0 C 80 % 89 % 996,7 hPa 0,0 l/m 9,3 km/h (2 Bft) SW 225 0 min 1,5 C -1,3 C 11,3 km/h (2 Bft)
02.12.2021 02:55 4,4 C 7,7 C 3,2 C 3,8 C 1,8 C 0,0 C 80 % 89 % 996,7 hPa 0,0 l/m 9,0 km/h (2 Bft) SW 225 0 min 1,3 C -0,9 C 9,7 km/h (2 Bft)
02.12.2021 03:00 4,4 C 7,7 C 3,4 C 3,8 C 2,1 C 0,0 C 80 % 89 % 996,7 hPa 0,0 l/m 8,7 km/h (2 Bft) SW 225 0 min 1,3 C -0,5 C 13,2 km/h (3 Bft)
02.12.2021 03:05 4,5 C 7,7 C 3,5 C 4,0 C 2,2 C 0,0 C 80 % 89 % 996,7 hPa 0,0 l/m 9,0 km/h (2 Bft) W-SW 247 0 min 1,4 C -0,4 C 10,6 km/h (2 Bft)
02.12.2021 03:10 4,5 C 7,7 C 3,5 C 4,0 C 2,3 C 0,0 C 80 % 88 % 996,6 hPa 0,0 l/m 9,3 km/h (2 Bft) S 180 0 min 1,4 C -0,4 C 12,9 km/h (3 Bft)
02.12.2021 03:15 4,5 C 7,7 C 3,5 C 3,8 C 2,3 C 0,0 C 80 % 88 % 996,6 hPa 0,0 l/m 9,3 km/h (2 Bft) SW 225 0 min 1,4 C -0,4 C 11,9 km/h (2 Bft)
02.12.2021 03:20 4,5 C 7,7 C 3,5 C 4,0 C 2,2 C 0,0 C 79 % 88 % 996,6 hPa 0,0 l/m 9,5 km/h (2 Bft) SW 225 0 min 1,2 C -0,6 C 10,9 km/h (2 Bft)
02.12.2021 03:25 4,5 C 7,7 C 3,5 C 4,0 C 2,1 C 0,0 C 78 % 87 % 996,6 hPa 0,0 l/m 10,0 km/h (2 Bft) W-SW 247 0 min 1,0 C -0,8 C 15,9 km/h (3 Bft)
02.12.2021 03:30 4,5 C 7,7 C 3,5 C 4,0 C 2,0 C 0,0 C 78 % 87 % 996,7 hPa 0,0 l/m 10,3 km/h (2 Bft) SW 225 0 min 1,0 C -1,0 C 10,3 km/h (2 Bft)
02.12.2021 03:35 4,4 C 7,7 C 3,4 C 3,8 C 1,9 C 0,0 C 78 % 87 % 996,7 hPa 0,0 l/m 9,3 km/h (2 Bft) S-SW 202 0 min 0,9 C -0,9 C 15,9 km/h (3 Bft)
02.12.2021 03:40 4,4 C 7,7 C 3,3 C 3,6 C 1,9 C 0,0 C 78 % 87 % 996,7 hPa 0,0 l/m 9,2 km/h (2 Bft) SW 225 0 min 0,9 C -0,8 C 13,4 km/h (3 Bft)
02.12.2021 03:45 4,4 C 7,7 C 3,2 C 3,8 C 1,6 C 0,0 C 78 % 87 % 996,7 hPa 0,0 l/m 10,0 km/h (2 Bft) W-SW 247 0 min 0,9 C -1,4 C 14,0 km/h (3 Bft)
02.12.2021 03:50 4,3 C 7,7 C 3,2 C 3,7 C 1,5 C 0,0 C 78 % 87 % 996,7 hPa 0,0 l/m 10,0 km/h (2 Bft) W-SW 247 0 min 0,8 C -1,5 C 14,8 km/h (3 Bft)
02.12.2021 03:55 4,3 C 7,6 C 3,3 C 3,7 C 1,6 C 0,0 C 78 % 87 % 996,7 hPa 0,0 l/m 10,0 km/h (2 Bft) W-SW 247 0 min 0,8 C -1,4 C 9,8 km/h (2 Bft)
02.12.2021 04:00 4,3 C 7,6 C 3,3 C 3,7 C 1,7 C 0,0 C 78 % 87 % 996,7 hPa 0,0 l/m 9,8 km/h (2 Bft) SW 225 0 min 0,8 C -1,2 C 9,7 km/h (2 Bft)
02.12.2021 04:05 4,3 C 7,6 C 3,3 C 3,7 C 1,9 C 0,0 C 78 % 87 % 996,7 hPa 0,0 l/m 9,3 km/h (2 Bft) W-SW 247 0 min 0,8 C -0,9 C 14,8 km/h (3 Bft)
02.12.2021 04:10 4,3 C 7,6 C 3,3 C 3,7 C 1,7 C 0,0 C 78 % 87 % 997,2 hPa 0,0 l/m 10,0 km/h (2 Bft) SW 225 0 min 0,8 C -1,3 C 15,1 km/h (3 Bft)
02.12.2021 04:15 4,2 C 7,6 C 3,3 C 3,4 C 1,7 C 0,0 C 78 % 87 % 997,2 hPa 0,0 l/m 10,1 km/h (2 Bft) W-SW 247 0 min 0,7 C -1,3 C 10,1 km/h (2 Bft)
02.12.2021 04:20 4,3 C 7,6 C 3,4 C 3,7 C 1,8 C 0,0 C 78 % 87 % 997,2 hPa 0,0 l/m 9,8 km/h (2 Bft) S-SW 202 0 min 0,8 C -1,1 C 9,8 km/h (2 Bft)
02.12.2021 04:25 4,3 C 7,6 C 3,5 C 3,8 C 2,1 C 0,0 C 78 % 87 % 997,2 hPa 0,0 l/m 10,1 km/h (2 Bft) S-SW 202 0 min 0,8 C -0,8 C 14,2 km/h (3 Bft)
02.12.2021 04:30 4,4 C 7,6 C 3,5 C 3,9 C 2,0 C 0,0 C 78 % 87 % 997,2 hPa 0,0 l/m 10,9 km/h (2 Bft) S-SW 202 0 min 0,9 C -1,1 C 14,5 km/h (3 Bft)
02.12.2021 04:35 4,5 C 7,6 C 3,6 C 3,9 C 1,7 C 0,0 C 78 % 86 % 997,2 hPa 0,0 l/m 12,6 km/h (3 Bft) W-SW 247 0 min 1,0 C -1,9 C 22,0 km/h (4 Bft)
02.12.2021 04:40 4,5 C 7,6 C 3,5 C 3,8 C 1,4 C 0,0 C 78 % 86 % 997,2 hPa 0,0 l/m 13,0 km/h (3 Bft) SW 225 0 min 1,0 C -2,3 C 9,8 km/h (2 Bft)
02.12.2021 04:45 4,5 C 7,6 C 3,5 C 3,8 C 1,6 C 0,0 C 78 % 86 % 997,2 hPa 0,0 l/m 12,1 km/h (2 Bft) S-SW 202 0 min 1,0 C -1,9 C 14,3 km/h (3 Bft)
02.12.2021 04:50 4,4 C 7,6 C 3,5 C 3,8 C 1,5 C 0,0 C 78 % 86 % 997,2 hPa 0,0 l/m 11,9 km/h (2 Bft) SW 225 0 min 0,9 C -2,0 C 11,1 km/h (2 Bft)
02.12.2021 04:55 4,3 C 7,6 C 3,3 C 3,7 C 1,4 C 0,0 C 78 % 86 % 997,2 hPa 0,0 l/m 11,6 km/h (2 Bft) SW 225 0 min 0,8 C -2,0 C 14,0 km/h (3 Bft)
02.12.2021 05:00 4,3 C 7,6 C 3,4 C 3,3 C 1,4 C 0,0 C 78 % 86 % 997,2 hPa 0,0 l/m 11,4 km/h (2 Bft) W-SW 247 0 min 0,8 C -2,0 C 15,0 km/h (3 Bft)
02.12.2021 05:05 4,4 C 7,6 C 3,5 C 3,7 C 1,3 C 0,0 C 78 % 85 % 997,2 hPa 0,0 l/m 12,2 km/h (2 Bft) SW 225 0 min 0,9 C -2,3 C 13,2 km/h (3 Bft)
02.12.2021 05:10 4,4 C 7,6 C 3,5 C 3,7 C 1,4 C 0,0 C 78 % 86 % 997,6 hPa 0,0 l/m 11,9 km/h (2 Bft) W-SW 247 0 min 0,9 C -2,1 C 19,5 km/h (3 Bft)
02.12.2021 05:15 4,3 C 7,6 C 3,4 C 3,3 C 1,4 C 0,0 C 78 % 85 % 997,6 hPa 0,0 l/m 11,7 km/h (2 Bft) SW 225 0 min 0,8 C -2,0 C 13,4 km/h (3 Bft)
02.12.2021 05:20 4,3 C 7,5 C 3,4 C 3,6 C 1,3 C 0,0 C 78 % 85 % 997,6 hPa 0,0 l/m 12,4 km/h (3 Bft) SW 225 0 min 0,8 C -2,3 C 17,2 km/h (3 Bft)
02.12.2021 05:25 4,3 C 7,5 C 3,2 C 3,6 C 1,2 C 0,0 C 78 % 85 % 997,6 hPa 0,0 l/m 11,7 km/h (2 Bft) W-SW 247 0 min 0,8 C -2,3 C 15,6 km/h (3 Bft)
02.12.2021 05:30 4,3 C 7,5 C 3,1 C 3,6 C 1,3 C 0,0 C 78 % 86 % 997,4 hPa 0,0 l/m 10,8 km/h (2 Bft) W-SW 247 0 min 0,8 C -2,0 C 20,1 km/h (4 Bft)
02.12.2021 05:35 4,3 C 7,5 C 3,1 C 3,5 C 0,9 C 0,0 C 78 % 86 % 997,4 hPa 0,0 l/m 11,9 km/h (2 Bft) W-SW 247 0 min 0,8 C -2,7 C 23,8 km/h (4 Bft)
02.12.2021 05:40 4,3 C 7,5 C 3,1 C 3,5 C 0,7 C 0,0 C 78 % 86 % 997,4 hPa 0,0 l/m 13,0 km/h (3 Bft) S 180 0 min 0,8 C -3,2 C 17,1 km/h (3 Bft)
02.12.2021 05:45 4,1 C 7,5 C 3,0 C 3,0 C 0,7 C 0,0 C 78 % 86 % 997,4 hPa 0,0 l/m 12,2 km/h (2 Bft) SW 225 0 min 0,6 C -3,0 C 13,8 km/h (3 Bft)
02.12.2021 05:50 4,0 C 7,5 C 2,9 C 3,2 C 0,8 C 0,0 C 78 % 86 % 997,8 hPa 0,0 l/m 11,3 km/h (2 Bft) SW 225 0 min 0,5 C -2,7 C 13,0 km/h (3 Bft)
02.12.2021 05:55 4,1 C 7,5 C 2,9 C 3,3 C 0,7 C 0,0 C 79 % 86 % 997,8 hPa 0,0 l/m 11,1 km/h (2 Bft) W-SW 247 0 min 0,8 C -2,7 C 11,1 km/h (2 Bft)
02.12.2021 06:00 4,0 C 7,5 C 2,9 C 3,3 C 1,1 C 0,0 C 79 % 87 % 997,8 hPa 0,0 l/m 9,7 km/h (2 Bft) SW 225 0 min 0,7 C -1,9 C 6,3 km/h (2 Bft)
02.12.2021 06:05 4,0 C 7,5 C 2,8 C 3,3 C 1,0 C 0,0 C 79 % 87 % 997,8 hPa 0,0 l/m 9,5 km/h (2 Bft) SW 225 0 min 0,7 C -2,0 C 14,0 km/h (3 Bft)
02.12.2021 06:10 4,0 C 7,5 C 2,8 C 3,3 C 0,8 C 0,0 C 79 % 86 % 998,0 hPa 0,0 l/m 10,3 km/h (2 Bft) SW 225 0 min 0,7 C -2,4 C 9,5 km/h (2 Bft)
02.12.2021 06:15 3,8 C 7,5 C 2,7 C 3,1 C 0,6 C 0,0 C 79 % 86 % 998,0 hPa 0,0 l/m 10,8 km/h (2 Bft) S 180 0 min 0,5 C -2,8 C 18,5 km/h (3 Bft)
02.12.2021 06:20 3,9 C 7,4 C 2,7 C 2,8 C 0,6 C 0,0 C 79 % 86 % 998,0 hPa 0,0 l/m 10,5 km/h (2 Bft) SW 225 0 min 0,6 C -2,7 C 12,6 km/h (3 Bft)
02.12.2021 06:25 3,7 C 7,4 C 2,7 C 3,0 C 0,8 C 0,0 C 79 % 86 % 998,0 hPa 0,0 l/m 9,8 km/h (2 Bft) W-SW 247 0 min 0,4 C -2,3 C 11,4 km/h (2 Bft)
02.12.2021 06:30 3,8 C 7,4 C 2,7 C 3,1 C 0,9 C 0,0 C 79 % 86 % 998,1 hPa 0,0 l/m 9,2 km/h (2 Bft) SW 225 0 min 0,5 C -2,0 C 11,4 km/h (2 Bft)
02.12.2021 06:35 3,7 C 7,4 C 2,6 C 3,1 C 1,1 C 0,0 C 79 % 86 % 998,1 hPa 0,0 l/m 8,0 km/h (2 Bft) SW 225 0 min 0,4 C -1,4 C 6,1 km/h (2 Bft)
02.12.2021 06:40 3,6 C 7,4 C 2,6 C 2,8 C 1,2 C 0,0 C 79 % 86 % 998,1 hPa 0,0 l/m 7,4 km/h (2 Bft) W-SW 247 0 min 0,3 C -1,1 C 8,0 km/h (2 Bft)
02.12.2021 06:45 3,7 C 7,4 C 2,5 C 2,9 C 1,2 C 0,0 C 79 % 86 % 998,1 hPa 0,0 l/m 7,1 km/h (2 Bft) W-SW 247 0 min 0,4 C -1,0 C 9,0 km/h (2 Bft)
02.12.2021 06:50 3,6 C 7,4 C 2,5 C 2,8 C 1,3 C 0,0 C 79 % 86 % 998,4 hPa 0,0 l/m 6,8 km/h (2 Bft) S 180 0 min 0,3 C -0,8 C 7,1 km/h (2 Bft)
02.12.2021 06:55 3,5 C 7,4 C 2,5 C 2,9 C 1,6 C 0,0 C 79 % 86 % 998,4 hPa 0,0 l/m 5,8 km/h (2 Bft) SW 225 0 min 0,2 C -0,1 C 6,3 km/h (2 Bft)
02.12.2021 07:00 3,4 C 7,4 C 2,5 C 2,8 C 1,7 C 0,0 C 79 % 87 % 998,4 hPa 0,0 l/m 5,5 km/h (1 Bft) W-SW 247 0 min 0,1 C 0,1 C 10,3 km/h (2 Bft)
02.12.2021 07:05 3,4 C 7,4 C 2,6 C 2,8 C 1,5 C 0,0 C 80 % 87 % 998,4 hPa 0,0 l/m 6,1 km/h (2 Bft) SW 225 0 min 0,3 C -0,3 C 6,8 km/h (2 Bft)
02.12.2021 07:10 3,5 C 7,4 C 2,6 C 2,8 C 1,4 C 0,0 C 80 % 87 % 998,4 hPa 0,0 l/m 6,4 km/h (2 Bft) SW 225 0 min 0,4 C -0,6 C 8,9 km/h (2 Bft)
02.12.2021 07:15 3,5 C 7,4 C 2,6 C 2,9 C 1,6 C 0,0 C 80 % 87 % 998,4 hPa 0,0 l/m 6,1 km/h (2 Bft) S-SW 202 0 min 0,4 C -0,2 C 7,1 km/h (2 Bft)
02.12.2021 07:20 3,4 C 7,4 C 2,6 C 2,9 C 1,8 C 0,0 C 81 % 87 % 998,4 hPa 0,0 l/m 5,6 km/h (1 Bft) SW 225 0 min 0,5 C 0,2 C 6,3 km/h (2 Bft)
02.12.2021 07:25 3,4 C 7,4 C 2,6 C 2,8 C 1,6 C 0,0 C 81 % 87 % 998,4 hPa 0,0 l/m 6,3 km/h (2 Bft) SW 225 0 min 0,5 C -0,3 C 9,8 km/h (2 Bft)
02.12.2021 07:30 3,5 C 7,3 C 2,7 C 2,8 C 1,3 C 0,0 C 81 % 87 % 998,5 hPa 0,0 l/m 7,2 km/h (2 Bft) W-SW 247 0 min 0,6 C -1,0 C 8,7 km/h (2 Bft)
02.12.2021 07:35 3,5 C 7,3 C 2,8 C 3,0 C 1,1 C 0,0 C 81 % 86 % 998,5 hPa 0,0 l/m 8,5 km/h (2 Bft) W-SW 247 0 min 0,6 C -1,6 C 11,7 km/h (2 Bft)
02.12.2021 07:40 3,4 C 7,3 C 2,7 C 2,9 C 1,2 C 0,0 C 81 % 86 % 998,5 hPa 0,0 l/m 8,7 km/h (2 Bft) SW 225 0 min 0,5 C -1,5 C 9,8 km/h (2 Bft)
02.12.2021 07:45 3,4 C 7,3 C 2,7 C 2,9 C 1,4 C 0,0 C 81 % 86 % 998,5 hPa 0,0 l/m 7,9 km/h (2 Bft) SW 225 0 min 0,5 C -1,1 C 9,3 km/h (2 Bft)
02.12.2021 07:50 3,5 C 7,3 C 2,8 C 2,8 C 1,4 C 0,0 C 81 % 86 % 998,9 hPa 0,0 l/m 7,6 km/h (2 Bft) O 90 0 min 0,6 C -1,0 C 9,5 km/h (2 Bft)
02.12.2021 07:55 3,5 C 7,3 C 2,9 C 2,8 C 1,5 C 0,0 C 80 % 86 % 998,9 hPa 0,0 l/m 7,4 km/h (2 Bft) SW 225 0 min 0,4 C -0,8 C 6,0 km/h (2 Bft)
02.12.2021 08:00 3,5 C 7,3 C 2,8 C 2,9 C 1,8 C 0,0 C 80 % 86 % 998,9 hPa 0,0 l/m 6,9 km/h (2 Bft) W 270 0 min 0,4 C -0,3 C 4,8 km/h (1 Bft)
02.12.2021 08:05 3,5 C 7,3 C 2,9 C 3,0 C 1,9 C 0,0 C 80 % 86 % 998,9 hPa 0,0 l/m 6,4 km/h (2 Bft) W-SW 247 0 min 0,4 C 0,0 C 5,1 km/h (1 Bft)
02.12.2021 08:10 3,5 C 7,3 C 2,9 C 3,0 C 2,1 C 0,0 C 80 % 86 % 999,2 hPa 0,0 l/m 5,8 km/h (2 Bft) W-SW 247 0 min 0,4 C 0,5 C 5,3 km/h (1 Bft)
02.12.2021 08:15 3,5 C 7,3 C 2,9 C 3,1 C 2,2 C 0,0 C 80 % 86 % 999,2 hPa 0,0 l/m 5,6 km/h (1 Bft) SW 225 0 min 0,4 C 0,7 C 4,7 km/h (1 Bft)
02.12.2021 08:20 3,5 C 7,3 C 2,9 C 3,1 C 2,2 C 0,0 C 80 % 86 % 999,2 hPa 0,0 l/m 5,8 km/h (2 Bft) SW 225 0 min 0,4 C 0,6 C 7,9 km/h (2 Bft)
02.12.2021 08:25 3,5 C 7,3 C 2,7 C 2,9 C 1,7 C 0,0 C 80 % 85 % 999,2 hPa 0,0 l/m 6,8 km/h (2 Bft) W-SW 247 0 min 0,4 C -0,4 C 10,6 km/h (2 Bft)
02.12.2021 08:30 3,5 C 7,3 C 2,7 C 2,8 C 1,4 C 0,0 C 80 % 85 % 999,6 hPa 0,0 l/m 7,4 km/h (2 Bft) W-SW 247 0 min 0,4 C -0,9 C 7,9 km/h (2 Bft)
02.12.2021 08:35 3,5 C 7,3 C 2,7 C 2,8 C 1,4 C 0,0 C 80 % 85 % 999,6 hPa 0,0 l/m 6,8 km/h (2 Bft) SW 225 0 min 0,4 C -0,7 C 5,5 km/h (1 Bft)
02.12.2021 08:40 3,6 C 7,3 C 2,7 C 3,0 C 1,8 C 0,0 C 79 % 85 % 999,6 hPa 0,0 l/m 6,3 km/h (2 Bft) SW 225 0 min 0,3 C -0,1 C 3,2 km/h (1 Bft)
02.12.2021 08:45 3,5 C 7,3 C 2,6 C 2,9 C 1,8 C 0,0 C 79 % 85 % 999,6 hPa 0,0 l/m 5,8 km/h (2 Bft) W-SW 247 0 min 0,2 C 0,1 C 8,2 km/h (2 Bft)
02.12.2021 08:50 3,4 C 7,3 C 2,5 C 2,9 C 1,9 C 0,0 C 79 % 85 % 999,6 hPa 0,0 l/m 5,3 km/h (1 Bft) W-SW 247 0 min 0,1 C 0,4 C 5,3 km/h (1 Bft)
02.12.2021 08:55 3,5 C 7,3 C 2,4 C 3,0 C 1,9 C 0,0 C 80 % 85 % 999,6 hPa 0,0 l/m 4,8 km/h (1 Bft) S 180 0 min 0,4 C 0,7 C 5,3 km/h (1 Bft)
02.12.2021 09:00 3,5 C 7,3 C 2,4 C 2,8 C 1,5 C 0,0 C 80 % 86 % 999,6 hPa 0,0 l/m 5,8 km/h (2 Bft) SW 225 0 min 0,4 C -0,2 C 7,1 km/h (2 Bft)
02.12.2021 09:05 3,3 C 7,3 C 2,4 C 2,6 C 1,2 C 0,0 C 80 % 86 % 999,6 hPa 0,0 l/m 6,6 km/h (2 Bft) W-SW 247 0 min 0,2 C -0,9 C 5,6 km/h (1 Bft)
02.12.2021 09:10 3,3 C 7,2 C 2,4 C 2,7 C 1,4 C 0,0 C 80 % 86 % 999,7 hPa 0,0 l/m 6,1 km/h (2 Bft) S-SW 202 0 min 0,2 C -0,5 C 6,6 km/h (2 Bft)
02.12.2021 09:15 3,3 C 7,2 C 2,5 C 2,7 C 1,4 C 0,0 C 80 % 86 % 999,7 hPa 0,0 l/m 6,3 km/h (2 Bft) SW 225 0 min 0,2 C -0,5 C 5,1 km/h (1 Bft)
02.12.2021 09:20 3,3 C 7,2 C 2,5 C 2,7 C 1,6 C 0,0 C 80 % 86 % 999,7 hPa 0,0 l/m 6,3 km/h (2 Bft) SW 225 0 min 0,2 C -0,3 C 7,7 km/h (2 Bft)
02.12.2021 09:25 3,5 C 7,2 C 2,7 C 2,9 C 1,8 C 0,0 C 80 % 86 % 999,7 hPa 0,0 l/m 6,4 km/h (2 Bft) W-SW 247 0 min 0,4 C -0,1 C 7,9 km/h (2 Bft)
02.12.2021 09:30 3,5 C 7,2 C 2,7 C 2,9 C 1,8 C 0,0 C 80 % 85 % 999,9 hPa 0,0 l/m 6,8 km/h (2 Bft) SW 225 0 min 0,4 C -0,2 C 6,6 km/h (2 Bft)
02.12.2021 09:35 3,5 C 7,2 C 2,9 C 3,1 C 2,3 C 0,0 C 80 % 85 % 999,9 hPa 0,0 l/m 6,3 km/h (2 Bft) W-SW 247 0 min 0,4 C 0,5 C 9,8 km/h (2 Bft)
02.12.2021 09:40 3,6 C 7,2 C 3,0 C 3,3 C 2,7 C 0,0 C 79 % 85 % 999,9 hPa 0,0 l/m 6,1 km/h (2 Bft) SW 225 0 min 0,3 C 1,0 C 7,9 km/h (2 Bft)
02.12.2021 09:45 3,6 C 7,2 C 3,1 C 3,3 C 2,8 C 0,0 C 79 % 85 % 999,9 hPa 0,0 l/m 6,1 km/h (2 Bft) SW 225 0 min 0,3 C 1,2 C 7,6 km/h (2 Bft)
02.12.2021 09:50 3,7 C 7,2 C 3,3 C 3,5 C 3,1 C 0,0 C 79 % 85 % 1000,2 hPa 0,0 l/m 5,8 km/h (2 Bft) SW 225 0 min 0,4 C 1,6 C 3,9 km/h (1 Bft)
02.12.2021 09:55 3,7 C 7,2 C 3,3 C 3,6 C 3,3 C 0,0 C 79 % 84 % 1000,2 hPa 0,0 l/m 5,5 km/h (1 Bft) SO 135 0 min 0,4 C 2,0 C 5,1 km/h (1 Bft)
02.12.2021 10:00 3,9 C 7,2 C 3,3 C 3,8 C 3,5 C 0,0 C 79 % 84 % 1000,2 hPa 0,0 l/m 5,0 km/h (1 Bft) SW 225 0 min 0,6 C 2,4 C 4,5 km/h (1 Bft)
02.12.2021 10:05 3,8 C 7,2 C 3,4 C 3,7 C 3,4 C 0,0 C 79 % 84 % 1000,2 hPa 0,0 l/m 5,5 km/h (1 Bft) W-SW 247 0 min 0,5 C 2,1 C 13,5 km/h (3 Bft)
02.12.2021 10:10 3,9 C 7,2 C 3,5 C 3,8 C 3,5 C 0,0 C 79 % 84 % 1000,3 hPa 0,0 l/m 6,3 km/h (2 Bft) W-SW 247 0 min 0,6 C 1,9 C 9,0 km/h (2 Bft)
02.12.2021 10:15 4,0 C 7,2 C 3,7 C 3,9 C 3,8 C 0,0 C 78 % 84 % 1000,3 hPa 0,0 l/m 6,6 km/h (2 Bft) W-SW 247 0 min 0,5 C 2,1 C 7,6 km/h (2 Bft)
02.12.2021 10:20 4,1 C 7,2 C 3,9 C 4,0 C 3,9 C 0,0 C 78 % 83 % 1000,3 hPa 0,0 l/m 6,3 km/h (2 Bft) SW 225 0 min 0,6 C 2,4 C 7,2 km/h (2 Bft)
02.12.2021 10:25 4,1 C 7,2 C 3,9 C 4,1 C 4,1 C 0,0 C 78 % 83 % 1000,3 hPa 0,0 l/m 6,1 km/h (2 Bft) SW 225 0 min 0,6 C 2,7 C 13,0 km/h (3 Bft)
02.12.2021 10:30 4,3 C 7,2 C 3,9 C 4,2 C 3,9 C 0,0 C 77 % 82 % 1000,4 hPa 0,0 l/m 6,4 km/h (2 Bft) SW 225 0 min 0,6 C 2,3 C 6,8 km/h (2 Bft)
02.12.2021 10:35 4,2 C 7,2 C 3,8 C 4,0 C 3,7 C 0,0 C 77 % 82 % 1000,4 hPa 0,0 l/m 6,3 km/h (2 Bft) SW 225 0 min 0,5 C 2,1 C 6,3 km/h (2 Bft)
02.12.2021 10:40 4,2 C 7,2 C 3,7 C 4,1 C 3,9 C 0,0 C 77 % 82 % 1000,4 hPa 0,0 l/m 5,5 km/h (1 Bft) W-SW 247 0 min 0,5 C 2,6 C 3,7 km/h (1 Bft)
02.12.2021 10:45 4,3 C 7,2 C 3,8 C 4,1 C 3,8 C 0,0 C 77 % 82 % 1000,4 hPa 0,0 l/m 5,8 km/h (2 Bft) O-SO 112 0 min 0,6 C 2,4 C 8,2 km/h (2 Bft)
02.12.2021 10:50 4,3 C 7,2 C 3,8 C 4,1 C 3,7 C 0,0 C 76 % 81 % 1000,6 hPa 0,0 l/m 6,0 km/h (2 Bft) SW 225 0 min 0,5 C 2,2 C 7,1 km/h (2 Bft)
02.12.2021 10:55 4,3 C 7,2 C 3,8 C 4,2 C 4,0 C 0,0 C 76 % 82 % 1000,6 hPa 0,0 l/m 5,5 km/h (1 Bft) S-SW 202 0 min 0,5 C 2,8 C 7,6 km/h (2 Bft)
02.12.2021 11:00 4,3 C 7,2 C 3,8 C 4,3 C 4,3 C 0,0 C 76 % 81 % 1000,6 hPa 0,0 l/m 5,1 km/h (1 Bft) W-SW 247 0 min 0,5 C 3,2 C 10,3 km/h (2 Bft)
02.12.2021 11:05 4,3 C 7,2 C 3,8 C 4,2 C 4,1 C 0,0 C 76 % 82 % 1000,6 hPa 0,0 l/m 5,8 km/h (2 Bft) S-SW 202 0 min 0,5 C 2,8 C 5,3 km/h (1 Bft)
02.12.2021 11:10 4,3 C 7,2 C 3,7 C 4,6 C 4,6 C 0,3 C 76 % 81 % 1000,6 hPa 0,0 l/m 5,6 km/h (1 Bft) SW 225 0 min 0,5 C 3,4 C 5,0 km/h (1 Bft)
02.12.2021 11:15 4,3 C 7,2 C 3,7 C 5,2 C 5,2 C 0,9 C 76 % 82 % 1000,6 hPa 0,0 l/m 4,8 km/h (1 Bft) W-SW 247 0 min 0,5 C 4,4 C 6,8 km/h (2 Bft)
02.12.2021 11:20 4,3 C 7,2 C 3,9 C 5,8 C 5,8 C 1,5 C 77 % 82 % 1000,6 hPa 0,0 l/m 4,8 km/h (1 Bft) SW 225 0 min 0,6 C 5,1 C 5,0 km/h (1 Bft)
02.12.2021 11:25 4,3 C 7,2 C 3,9 C 6,3 C 6,3 C 2,0 C 76 % 81 % 1000,6 hPa 0,0 l/m 4,7 km/h (1 Bft) W-SW 247 0 min 0,5 C 5,7 C 5,5 km/h (1 Bft)
02.12.2021 11:30 4,3 C 7,2 C 4,1 C 5,6 C 5,6 C 1,3 C 76 % 81 % 1000,7 hPa 0,0 l/m 5,1 km/h (1 Bft) S-SW 202 0 min 0,5 C 4,7 C 11,3 km/h (2 Bft)
02.12.2021 11:35 4,3 C 7,1 C 4,2 C 4,6 C 4,6 C 0,3 C 75 % 80 % 1000,7 hPa 0,0 l/m 6,4 km/h (2 Bft) SW 225 0 min 0,3 C 3,1 C 9,0 km/h (2 Bft)
02.12.2021 11:40 4,3 C 7,1 C 4,2 C 4,6 C 4,6 C 0,3 C 75 % 80 % 1000,7 hPa 0,0 l/m 6,4 km/h (2 Bft) W-SW 247 0 min 0,3 C 3,1 C 7,1 km/h (2 Bft)
02.12.2021 11:45 4,2 C 7,1 C 4,0 C 4,2 C 4,2 C 0,0 C 74 % 80 % 1000,7 hPa 0,0 l/m 6,3 km/h (2 Bft) W-SW 247 0 min -0,0 C 2,7 C 6,6 km/h (2 Bft)
02.12.2021 11:50 4,3 C 7,1 C 4,1 C 4,6 C 4,6 C 0,3 C 75 % 80 % 1000,6 hPa 0,0 l/m 5,5 km/h (1 Bft) S 180 0 min 0,3 C 3,4 C 4,3 km/h (1 Bft)
02.12.2021 11:55 4,5 C 7,1 C 4,3 C 6,1 C 6,1 C 1,6 C 75 % 80 % 1000,6 hPa 0,0 l/m 3,2 km/h (1 Bft) W-SW 247 0 min 0,5 C 6,1 C 4,3 km/h (1 Bft)
02.12.2021 12:00 4,4 C 7,1 C 4,1 C 6,0 C 6,0 C 1,6 C 75 % 79 % 1000,6 hPa 0,0 l/m 2,3 km/h (1 Bft) NW 315 0 min 0,4 C 6,0 C 3,7 km/h (1 Bft)
02.12.2021 12:05 4,4 C 7,1 C 4,1 C 5,6 C 5,6 C 1,2 C 74 % 78 % 1000,6 hPa 0,0 l/m 1,9 km/h (1 Bft) NW 315 0 min 0,2 C 5,6 C 0,0 km/h (0 Bft)
02.12.2021 12:10 4,4 C 7,1 C 4,3 C 6,0 C 6,0 C 1,6 C 73 % 78 % 1000,6 hPa 0,0 l/m 2,6 km/h (1 Bft) SW 225 0 min -0,0 C 6,0 C 9,2 km/h (2 Bft)
02.12.2021 12:15 4,6 C 7,0 C 4,7 C 6,4 C 6,4 C 1,8 C 73 % 78 % 1000,6 hPa 0,0 l/m 4,0 km/h (1 Bft) W-SW 247 0 min 0,2 C 6,4 C 5,1 km/h (1 Bft)
02.12.2021 12:20 4,7 C 7,0 C 4,7 C 6,9 C 6,9 C 2,2 C 72 % 77 % 1000,6 hPa 0,0 l/m 4,0 km/h (1 Bft) SW 225 0 min 0,1 C 6,9 C 2,4 km/h (1 Bft)
02.12.2021 12:25 4,9 C 7,0 C 4,8 C 7,3 C 7,3 C 2,4 C 71 % 75 % 1000,6 hPa 0,0 l/m 2,7 km/h (1 Bft) W-SW 247 0 min 0,1 C 7,3 C 7,1 km/h (2 Bft)
02.12.2021 12:30 4,8 C 7,0 C 4,8 C 7,1 C 7,1 C 2,3 C 71 % 75 % 1000,5 hPa 0,0 l/m 2,3 km/h (1 Bft) SW 225 0 min -0,0 C 7,1 C 2,1 km/h (1 Bft)
02.12.2021 12:35 4,9 C 7,0 C 4,9 C 7,2 C 7,2 C 2,3 C 71 % 75 % 1000,5 hPa 0,0 l/m 1,9 km/h (1 Bft) W-SW 247 0 min 0,1 C 7,2 C 4,3 km/h (1 Bft)
02.12.2021 12:40 5,1 C 7,0 C 4,9 C 7,2 C 7,2 C 2,1 C 71 % 75 % 1000,5 hPa 0,0 l/m 1,4 km/h (1 Bft) N-NW 337 0 min 0,3 C 7,2 C 0,0 km/h (0 Bft)
02.12.2021 12:45 5,1 C 7,0 C 4,9 C 6,9 C 6,9 C 1,8 C 71 % 75 % 1000,5 hPa 0,0 l/m 2,3 km/h (1 Bft) W-SW 247 0 min 0,3 C 6,9 C 4,8 km/h (1 Bft)
02.12.2021 12:50 4,8 C 7,1 C 4,9 C 6,6 C 6,6 C 1,8 C 70 % 75 % 1000,8 hPa 0,0 l/m 3,1 km/h (1 Bft) SW 225 0 min -0,2 C 6,6 C 3,5 km/h (1 Bft)
02.12.2021 12:55 4,7 C 7,1 C 4,7 C 6,0 C 6,0 C 1,3 C 71 % 75 % 1000,8 hPa 0,0 l/m 3,2 km/h (1 Bft) SW 225 0 min -0,1 C 6,0 C 0,0 km/h (0 Bft)
02.12.2021 13:00 4,7 C 7,1 C 4,6 C 5,7 C 5,7 C 1,0 C 71 % 75 % 1000,8 hPa 0,0 l/m 2,6 km/h (1 Bft) W-SW 247 0 min -0,1 C 5,7 C 0,0 km/h (0 Bft)
02.12.2021 13:05 4,5 C 7,1 C 4,4 C 5,4 C 5,4 C 0,9 C 72 % 77 % 1000,8 hPa 0,0 l/m 1,9 km/h (1 Bft) S 180 0 min -0,1 C 5,4 C 0,0 km/h (0 Bft)
02.12.2021 13:10 4,3 C 7,1 C 4,4 C 5,2 C 5,2 C 0,9 C 72 % 77 % 1000,8 hPa 0,0 l/m 1,9 km/h (1 Bft) W-SW 247 0 min -0,3 C 5,2 C 2,9 km/h (1 Bft)
02.12.2021 13:15 4,1 C 7,1 C 4,2 C 4,8 C 4,8 C 0,7 C 74 % 78 % 1000,8 hPa 0,0 l/m 1,9 km/h (1 Bft) NW 315 0 min -0,1 C 4,8 C 0,0 km/h (0 Bft)
02.12.2021 13:20 4,0 C 7,1 C 4,0 C 4,6 C 4,6 C 0,6 C 74 % 79 % 1000,8 hPa 0,0 l/m 1,8 km/h (1 Bft) W-SW 247 0 min -0,2 C 4,6 C 3,2 km/h (1 Bft)
02.12.2021 13:25 3,9 C 7,1 C 3,9 C 4,2 C 4,2 C 0,3 C 76 % 80 % 1000,8 hPa 0,0 l/m 1,6 km/h (1 Bft) W-SW 247 0 min 0,1 C 4,2 C 2,4 km/h (1 Bft)
02.12.2021 13:30 3,7 C 7,1 C 3,9 C 4,1 C 4,1 C 0,4 C 76 % 80 % 1001,0 hPa 0,0 l/m 1,8 km/h (1 Bft) S-SW 202 0 min -0,1 C 4,1 C 2,1 km/h (1 Bft)
02.12.2021 13:35 3,6 C 7,1 C 3,8 C 4,0 C 4,0 C 0,4 C 77 % 81 % 1001,0 hPa 0,0 l/m 0,6 km/h (0 Bft) S-SO 157 0 min -0,0 C 4,0 C 1,6 km/h (1 Bft)
02.12.2021 13:40 3,6 C 7,1 C 3,7 C 4,0 C 4,0 C 0,4 C 77 % 81 % 1001,0 hPa 0,0 l/m 0,5 km/h (0 Bft) W-SW 247 0 min -0,0 C 4,0 C 0,0 km/h (0 Bft)
02.12.2021 13:45 3,5 C 7,1 C 3,7 C 4,0 C 4,0 C 0,5 C 78 % 82 % 1001,0 hPa 0,0 l/m 0,2 km/h (0 Bft) SO 135 0 min 0,0 C 4,0 C 2,7 km/h (1 Bft)
02.12.2021 13:50 3,5 C 7,1 C 3,6 C 3,9 C 3,9 C 0,4 C 78 % 82 % 1000,9 hPa 0,0 l/m 0,5 km/h (0 Bft) O 90 0 min 0,0 C 3,9 C 0,0 km/h (0 Bft)
02.12.2021 13:55 3,5 C 7,1 C 3,5 C 3,9 C 3,9 C 0,4 C 79 % 82 % 1000,9 hPa 0,0 l/m 0,6 km/h (0 Bft) O-NO 67 0 min 0,2 C 3,9 C 0,0 km/h (0 Bft)
02.12.2021 14:00 3,4 C 7,1 C 3,4 C 3,9 C 3,9 C 0,5 C 79 % 82 % 1000,9 hPa 0,0 l/m 0,2 km/h (0 Bft) SW 225 0 min 0,1 C 3,9 C 0,0 km/h (0 Bft)
02.12.2021 14:05 3,3 C 7,1 C 3,3 C 3,8 C 3,8 C 0,5 C 79 % 82 % 1000,9 hPa 0,0 l/m 0,2 km/h (0 Bft) S-SO 157 0 min 0,0 C 3,8 C 0,0 km/h (0 Bft)
02.12.2021 14:10 3,3 C 7,1 C 3,3 C 3,8 C 3,8 C 0,5 C 79 % 83 % 1000,9 hPa 0,0 l/m 0,2 km/h (0 Bft) S 180 0 min 0,0 C 3,8 C 0,0 km/h (0 Bft)
02.12.2021 14:15 3,2 C 7,1 C 3,3 C 3,8 C 3,8 C 0,6 C 80 % 83 % 1000,9 hPa 0,0 l/m 0,2 km/h (0 Bft) S-SO 157 0 min 0,1 C 3,8 C 0,0 km/h (0 Bft)
02.12.2021 14:20 3,2 C 7,1 C 3,2 C 3,8 C 3,8 C 0,6 C 80 % 83 % 1000,9 hPa 0,0 l/m 0,0 km/h (0 Bft) O 90 0 min 0,1 C 3,8 C 0,0 km/h (0 Bft)
02.12.2021 14:25 3,2 C 7,1 C 3,2 C 3,8 C 3,8 C 0,6 C 80 % 84 % 1000,9 hPa 0,0 l/m 0,2 km/h (0 Bft) S 180 0 min 0,1 C 3,8 C 1,9 km/h (1 Bft)
02.12.2021 14:30 3,2 C 7,1 C 3,2 C 3,8 C 3,8 C 0,6 C 80 % 84 % 1001,4 hPa 0,0 l/m 0,3 km/h (0 Bft) S 180 0 min 0,1 C 3,8 C 0,0 km/h (0 Bft)
02.12.2021 14:35 3,1 C 7,1 C 3,1 C 3,6 C 3,6 C 0,5 C 81 % 84 % 1001,4 hPa 0,0 l/m 0,6 km/h (0 Bft) S 180 0 min 0,2 C 3,6 C 2,4 km/h (1 Bft)
02.12.2021 14:40 3,1 C 7,1 C 3,0 C 3,5 C 3,5 C 0,4 C 81 % 84 % 1001,4 hPa 0,0 l/m 1,0 km/h (0 Bft) SO 135 0 min 0,2 C 3,5 C 3,2 km/h (1 Bft)
02.12.2021 14:45 3,0 C 7,1 C 2,9 C 3,2 C 3,2 C 0,2 C 81 % 84 % 1001,4 hPa 0,0 l/m 1,1 km/h (1 Bft) S-SO 157 0 min 0,1 C 3,2 C 0,0 km/h (0 Bft)
02.12.2021 14:50 2,9 C 7,1 C 2,9 C 3,1 C 3,1 C 0,2 C 82 % 85 % 1002,0 hPa 0,0 l/m 0,6 km/h (0 Bft) NO 45 0 min 0,1 C 3,1 C 0,0 km/h (0 Bft)
02.12.2021 14:55 2,8 C 7,2 C 2,8 C 3,0 C 3,0 C 0,2 C 82 % 85 % 1002,0 hPa 0,0 l/m 0,5 km/h (0 Bft) SW 225 0 min 0,0 C 3,0 C 3,7 km/h (1 Bft)
02.12.2021 15:00 2,9 C 7,2 C 2,7 C 2,9 C 2,9 C 0,0 C 82 % 86 % 1002,0 hPa 0,0 l/m 0,6 km/h (0 Bft) SW 225 0 min 0,1 C 2,9 C 2,7 km/h (1 Bft)
02.12.2021 15:05 2,7 C 7,2 C 2,6 C 2,8 C 2,8 C 0,1 C 82 % 86 % 1002,0 hPa 0,0 l/m 0,3 km/h (0 Bft) SO 135 0 min -0,1 C 2,8 C 0,0 km/h (0 Bft)
02.12.2021 15:10 2,7 C 7,2 C 2,5 C 2,7 C 2,6 C 0,0 C 82 % 86 % 1001,7 hPa 0,0 l/m 0,2 km/h (0 Bft) S 180 0 min -0,1 C 2,6 C 0,0 km/h (0 Bft)
02.12.2021 15:15 2,7 C 7,2 C 2,5 C 2,6 C 2,5 C 0,0 C 83 % 87 % 1001,7 hPa 0,0 l/m 0,0 km/h (0 Bft) SO 135 0 min 0,1 C 2,5 C 0,0 km/h (0 Bft)
02.12.2021 15:20 2,7 C 7,2 C 2,4 C 2,6 C 2,5 C 0,0 C 83 % 86 % 1001,7 hPa 0,0 l/m 0,0 km/h (0 Bft) W 270 0 min 0,1 C 2,5 C 0,0 km/h (0 Bft)
02.12.2021 15:25 2,7 C 7,2 C 2,4 C 2,6 C 2,4 C 0,0 C 83 % 87 % 1001,7 hPa 0,0 l/m 0,0 km/h (0 Bft) W 270 0 min 0,1 C 2,4 C 0,0 km/h (0 Bft)
02.12.2021 15:30 2,7 C 7,2 C 2,4 C 2,6 C 2,3 C 0,0 C 83 % 86 % 1001,9 hPa 0,0 l/m 0,0 km/h (0 Bft) W-SW 247 0 min 0,1 C 2,3 C 0,0 km/h (0 Bft)
02.12.2021 15:35 2,6 C 7,2 C 2,4 C 2,5 C 2,2 C 0,0 C 83 % 87 % 1001,9 hPa 0,0 l/m 0,0 km/h (0 Bft) SW 225 0 min 0,0 C 2,2 C 0,0 km/h (0 Bft)
02.12.2021 15:40 2,5 C 7,2 C 2,4 C 2,4 C 2,2 C 0,0 C 83 % 87 % 1001,9 hPa 0,0 l/m 0,0 km/h (0 Bft) SW 225 0 min -0,1 C 2,2 C 0,0 km/h (0 Bft)
02.12.2021 15:45 2,5 C 7,2 C 2,3 C 2,4 C 2,1 C 0,0 C 84 % 87 % 1001,9 hPa 0,0 l/m 0,0 km/h (0 Bft) SW 225 0 min 0,1 C 2,1 C 0,0 km/h (0 Bft)
02.12.2021 15:50 2,5 C 7,2 C 2,3 C 2,3 C 2,0 C 0,0 C 84 % 87 % 1001,9 hPa 0,0 l/m 0,0 km/h (0 Bft) SW 225 0 min 0,1 C 2,0 C 0,0 km/h (0 Bft)
02.12.2021 15:55 2,5 C 7,2 C 2,3 C 2,3 C 1,9 C 0,0 C 84 % 88 % 1001,9 hPa 0,0 l/m 0,0 km/h (0 Bft) SW 225 0 min 0,1 C 1,9 C 0,0 km/h (0 Bft)
02.12.2021 16:00 2,4 C 7,2 C 2,2 C 2,2 C 1,9 C 0,0 C 84 % 88 % 1001,9 hPa 0,0 l/m 0,0 km/h (0 Bft) SW 225 0 min -0,0 C 1,9 C 0,0 km/h (0 Bft)
02.12.2021 16:05 2,4 C 7,2 C 2,2 C 2,2 C 1,9 C 0,0 C 84 % 88 % 1001,9 hPa 0,0 l/m 0,0 km/h (0 Bft) N-NO 22 0 min -0,0 C 1,9 C 0,0 km/h (0 Bft)
02.12.2021 16:10 2,4 C 7,2 C 2,1 C 2,2 C 1,8 C 0,0 C 84 % 88 % 1002,7 hPa 0,0 l/m 0,0 km/h (0 Bft) W 270 0 min -0,0 C 1,8 C 0,0 km/h (0 Bft)
02.12.2021 16:15 2,3 C 7,2 C 2,1 C 2,1 C 1,7 C 0,0 C 84 % 88 % 1002,7 hPa 0,0 l/m 0,0 km/h (0 Bft) O-SO 112 0 min -0,1 C 1,7 C 1,6 km/h (1 Bft)
02.12.2021 16:20 2,3 C 7,2 C 2,1 C 2,1 C 1,7 C 0,0 C 84 % 88 % 1002,7 hPa 0,0 l/m 0,0 km/h (0 Bft) W-SW 247 0 min -0,1 C 1,7 C 0,0 km/h (0 Bft)
02.12.2021 16:25 2,3 C 7,3 C 2,0 C 2,1 C 1,7 C 0,0 C 84 % 88 % 1002,7 hPa 0,0 l/m 0,0 km/h (0 Bft) W-SW 247 0 min -0,1 C 1,7 C 0,0 km/h (0 Bft)
02.12.2021 16:30 2,3 C 7,3 C 2,0 C 2,1 C 1,7 C 0,0 C 84 % 88 % 1002,8 hPa 0,0 l/m 0,0 km/h (0 Bft) W-SW 247 0 min -0,1 C 1,7 C 0,0 km/h (0 Bft)
02.12.2021 16:35 2,3 C 7,3 C 1,9 C 2,1 C 1,7 C 0,0 C 84 % 89 % 1002,8 hPa 0,0 l/m 0,3 km/h (0 Bft) W-SW 247 0 min -0,1 C 1,7 C 0,0 km/h (0 Bft)
02.12.2021 16:40 2,0 C 7,4 C 1,7 C 1,8 C 1,5 C 0,0 C 84 % 88 % 1002,8 hPa 0,0 l/m 0,8 km/h (0 Bft) W-SW 247 0 min -0,4 C 1,5 C 1,6 km/h (1 Bft)
02.12.2021 16:45 1,6 C 7,4 C 1,2 C 1,3 C 0,8 C 0,0 C 84 % 88 % 1002,8 hPa 0,0 l/m 2,1 km/h (1 Bft) NW 315 0 min -0,8 C 0,8 C 6,0 km/h (2 Bft)
02.12.2021 16:50 1,5 C 7,5 C 1,0 C 1,2 C 0,7 C 0,0 C 84 % 88 % 1004,2 hPa 0,0 l/m 2,1 km/h (1 Bft) W-NW 292 0 min -0,9 C 0,7 C 0,0 km/h (0 Bft)
02.12.2021 16:55 1,2 C 7,5 C 0,9 C 1,0 C 0,5 C 0,0 C 84 % 89 % 1004,2 hPa 0,0 l/m 1,9 km/h (1 Bft) N-NW 337 0 min -1,2 C 0,5 C 6,4 km/h (2 Bft)
02.12.2021 17:00 1,1 C 7,5 C 0,7 C 0,9 C 0,4 C 0,0 C 85 % 89 % 1004,2 hPa 0,0 l/m 1,4 km/h (1 Bft) N-NO 22 0 min -1,1 C 0,4 C 2,3 km/h (1 Bft)
02.12.2021 17:05 0,9 C 7,5 C 0,6 C 0,7 C 0,3 C 0,0 C 85 % 89 % 1004,2 hPa 0,0 l/m 0,8 km/h (0 Bft) O-SO 112 0 min -1,3 C 0,3 C 0,0 km/h (0 Bft)
02.12.2021 17:10 0,8 C 7,5 C 0,5 C 0,6 C 0,3 C 0,0 C 85 % 89 % 1004,2 hPa 0,0 l/m 0,6 km/h (0 Bft) W 270 0 min -1,4 C 0,3 C 0,0 km/h (0 Bft)
02.12.2021 17:15 0,7 C 7,4 C 0,4 C 0,5 C 0,2 C 0,0 C 85 % 89 % 1004,2 hPa 0,0 l/m 0,6 km/h (0 Bft) W-SW 247 0 min -1,5 C 0,2 C 7,7 km/h (2 Bft)
02.12.2021 17:20 0,6 C 7,4 C 0,4 C 0,4 C 0,1 C 0,0 C 85 % 89 % 1004,2 hPa 0,0 l/m 0,3 km/h (0 Bft) N-NO 22 0 min -1,6 C 0,1 C 0,0 km/h (0 Bft)
02.12.2021 17:25 0,6 C 7,4 C 0,3 C 0,4 C 0,1 C 0,0 C 85 % 89 % 1004,2 hPa 0,0 l/m 0,5 km/h (0 Bft) W-NW 292 0 min -1,6 C 0,1 C 0,0 km/h (0 Bft)
02.12.2021 17:30 0,5 C 7,4 C 0,3 C 0,4 C 0,1 C 0,0 C 86 % 90 % 1004,3 hPa 0,0 l/m 0,2 km/h (0 Bft) W-SW 247 0 min -1,6 C 0,1 C 1,9 km/h (1 Bft)
02.12.2021 17:35 0,5 C 7,4 C 0,2 C 0,4 C 0,1 C 0,0 C 86 % 90 % 1004,3 hPa 0,0 l/m 0,5 km/h (0 Bft) W 270 0 min -1,6 C 0,1 C 0,0 km/h (0 Bft)
02.12.2021 17:40 0,3 C 7,4 C 0,2 C 0,2 C 0,0 C 0,0 C 86 % 90 % 1004,3 hPa 0,0 l/m 0,5 km/h (0 Bft) SW 225 0 min -1,8 C 0,0 C 0,0 km/h (0 Bft)
02.12.2021 17:45 0,1 C 7,4 C 0,0 C 0,0 C -0,2 C 0,0 C 86 % 90 % 1004,3 hPa 0,0 l/m 0,2 km/h (0 Bft) SW 225 0 min -2,0 C -0,2 C 0,0 km/h (0 Bft)
02.12.2021 17:50 0,0 C 7,4 C -0,1 C -0,1 C -0,3 C 0,0 C 86 % 90 % 1004,8 hPa 0,0 l/m 0,2 km/h (0 Bft) SW 225 0 min -2,1 C -0,3 C 0,0 km/h (0 Bft)
02.12.2021 17:55 -0,1 C 7,4 C -0,1 C -0,2 C -0,5 C 0,0 C 86 % 90 % 1004,8 hPa 0,0 l/m 0,0 km/h (0 Bft) SW 225 0 min -2,2 C -0,5 C 0,0 km/h (0 Bft)
02.12.2021 18:00 -0,2 C 7,4 C -0,2 C -0,3 C -0,6 C 0,0 C 86 % 90 % 1004,8 hPa 0,0 l/m 0,2 km/h (0 Bft) SW 225 0 min -2,3 C -0,6 C 0,0 km/h (0 Bft)
02.12.2021 18:05 -0,1 C 7,4 C -0,2 C -0,3 C -0,6 C 0,0 C 86 % 90 % 1004,8 hPa 0,0 l/m 0,2 km/h (0 Bft) SW 225 0 min -2,2 C -0,6 C 0,0 km/h (0 Bft)
02.12.2021 18:10 -0,1 C 7,4 C -0,3 C -0,3 C -0,7 C 0,0 C 87 % 90 % 1004,8 hPa 0,0 l/m 0,0 km/h (0 Bft) SW 225 0 min -2,0 C -0,7 C 0,0 km/h (0 Bft)
02.12.2021 18:15 -0,3 C 7,3 C -0,4 C -0,4 C -0,7 C 0,0 C 86 % 90 % 1004,8 hPa 0,0 l/m 0,0 km/h (0 Bft) SW 225 0 min -2,3 C -0,7 C 0,0 km/h (0 Bft)
02.12.2021 18:20 -0,3 C 7,3 C -0,4 C -0,5 C -0,8 C 0,0 C 86 % 90 % 1004,8 hPa 0,0 l/m 0,0 km/h (0 Bft) SW 225 0 min -2,3 C -0,8 C 0,0 km/h (0 Bft)
02.12.2021 18:25 -0,4 C 7,3 C -0,5 C -0,6 C -0,9 C 0,0 C 86 % 90 % 1004,8 hPa 0,0 l/m 0,0 km/h (0 Bft) SW 225 0 min -2,4 C -0,9 C 0,0 km/h (0 Bft)
02.12.2021 18:30 -0,3 C 7,3 C -0,5 C -0,5 C -0,9 C 0,0 C 86 % 90 % 1005,0 hPa 0,0 l/m 0,0 km/h (0 Bft) SW 225 0 min -2,3 C -0,9 C 0,0 km/h (0 Bft)
02.12.2021 18:35 -0,5 C 7,3 C -0,7 C -0,7 C -1,2 C 0,0 C 86 % 90 % 1005,0 hPa 0,0 l/m 0,0 km/h (0 Bft) SW 225 0 min -2,5 C -1,2 C 0,0 km/h (0 Bft)
02.12.2021 18:40 -0,5 C 7,3 C -0,7 C -0,8 C -1,3 C 0,0 C 86 % 90 % 1005,0 hPa 0,0 l/m 0,0 km/h (0 Bft) SW 225 0 min -2,5 C -1,3 C 0,0 km/h (0 Bft)
02.12.2021 18:45 -0,5 C 7,3 C -0,7 C -0,8 C -1,5 C 0,0 C 87 % 90 % 1005,0 hPa 0,0 l/m 0,0 km/h (0 Bft) SW 225 0 min -2,4 C -1,5 C 0,0 km/h (0 Bft)
02.12.2021 18:50 -0,5 C 7,3 C -0,8 C -0,8 C -1,5 C 0,0 C 87 % 91 % 1005,2 hPa 0,0 l/m 0,0 km/h (0 Bft) SW 225 0 min -2,4 C -1,5 C 0,0 km/h (0 Bft)
02.12.2021 18:55 -0,5 C 7,3 C -0,8 C -0,8 C -1,5 C 0,0 C 87 % 91 % 1005,2 hPa 0,0 l/m 0,0 km/h (0 Bft) SW 225 0 min -2,4 C -1,5 C 0,0 km/h (0 Bft)
02.12.2021 19:00 -0,5 C 7,3 C -0,9 C -0,8 C -1,5 C 0,0 C 87 % 91 % 1005,2 hPa 0,0 l/m 0,0 km/h (0 Bft) SW 225 0 min -2,4 C -1,5 C 0,0 km/h (0 Bft)
02.12.2021 19:05 -0,7 C 7,3 C -1,0 C -1,0 C -1,6 C 0,0 C 87 % 91 % 1005,2 hPa 0,0 l/m 0,0 km/h (0 Bft) SW 225 0 min -2,6 C -1,6 C 0,0 km/h (0 Bft)
02.12.2021 19:10 -0,7 C 7,3 C -1,0 C -1,0 C -1,7 C 0,0 C 87 % 91 % 1005,2 hPa 0,0 l/m 0,0 km/h (0 Bft) SW 225 0 min -2,6 C -1,7 C 0,0 km/h (0 Bft)
02.12.2021 19:15 -0,7 C 7,3 C -1,0 C -1,1 C -1,8 C 0,0 C 87 % 91 % 1005,2 hPa 0,0 l/m 0,0 km/h (0 Bft) SW 225 0 min -2,6 C -1,8 C 0,0 km/h (0 Bft)
02.12.2021 19:20 -0,7 C 7,2 C -1,0 C -1,0 C -1,7 C 0,0 C 87 % 91 % 1005,2 hPa 0,0 l/m 0,0 km/h (0 Bft) SW 225 0 min -2,6 C -1,7 C 0,0 km/h (0 Bft)
02.12.2021 19:25 -0,7 C 7,3 C -1,1 C -1,0 C -1,7 C 0,0 C 87 % 91 % 1005,2 hPa 0,0 l/m 0,0 km/h (0 Bft) SW 225 0 min -2,6 C -1,7 C 0,0 km/h (0 Bft)
02.12.2021 19:30 -0,8 C 7,2 C -1,2 C -1,2 C -1,9 C 0,0 C 87 % 91 % 1005,9 hPa 0,0 l/m 0,0 km/h (0 Bft) SW 225 0 min -2,7 C -1,9 C 0,0 km/h (0 Bft)
02.12.2021 19:35 -0,9 C 7,2 C -1,3 C -1,2 C -1,9 C 0,0 C 87 % 91 % 1005,9 hPa 0,0 l/m 0,0 km/h (0 Bft) SW 225 0 min -2,8 C -1,9 C 0,0 km/h (0 Bft)
02.12.2021 19:40 -0,9 C 7,2 C -1,3 C -1,2 C -1,9 C 0,0 C 87 % 92 % 1005,9 hPa 0,0 l/m 0,0 km/h (0 Bft) SW 225 0 min -2,8 C -1,9 C 0,0 km/h (0 Bft)
02.12.2021 19:45 -0,7 C 7,2 C -1,2 C -1,1 C -1,9 C 0,0 C 87 % 92 % 1005,9 hPa 0,0 l/m 0,0 km/h (0 Bft) SW 225 0 min -2,6 C -1,9 C 0,0 km/h (0 Bft)
02.12.2021 19:50 -0,7 C 7,2 C -1,3 C -1,1 C -1,9 C 0,0 C 87 % 92 % 1006,4 hPa 0,0 l/m 0,0 km/h (0 Bft) SW 225 0 min -2,6 C -1,9 C 0,0 km/h (0 Bft)
02.12.2021 19:55 -0,9 C 7,2 C -1,3 C -1,2 C -1,9 C 0,0 C 87 % 92 % 1006,4 hPa 0,0 l/m 0,0 km/h (0 Bft) SW 225 0 min -2,8 C -1,9 C 0,0 km/h (0 Bft)
02.12.2021 20:00 -0,9 C 7,2 C -1,3 C -1,2 C -1,9 C 0,0 C 88 % 92 % 1006,4 hPa 0,0 l/m 0,0 km/h (0 Bft) SW 225 0 min -2,6 C -1,9 C 0,0 km/h (0 Bft)
02.12.2021 20:05 -0,9 C 7,2 C -1,3 C -1,2 C -1,9 C 0,0 C 88 % 92 % 1006,4 hPa 0,0 l/m 0,0 km/h (0 Bft) SW 225 0 min -2,6 C -1,9 C 0,0 km/h (0 Bft)
02.12.2021 20:10 -0,9 C 7,2 C -1,3 C -1,2 C -1,9 C 0,0 C 88 % 92 % 1006,7 hPa 0,0 l/m 0,0 km/h (0 Bft) SW 225 0 min -2,6 C -1,9 C 0,0 km/h (0 Bft)
02.12.2021 20:15 -0,9 C 7,2 C -1,3 C -1,3 C -2,0 C 0,0 C 88 % 92 % 1006,7 hPa 0,0 l/m 0,0 km/h (0 Bft) SW 225 0 min -2,6 C -2,0 C 0,0 km/h (0 Bft)
02.12.2021 20:20 -0,9 C 7,2 C -1,4 C -1,3 C -2,0 C 0,0 C 88 % 92 % 1006,7 hPa 0,0 l/m 0,0 km/h (0 Bft) SW 225 0 min -2,6 C -2,0 C 0,0 km/h (0 Bft)
02.12.2021 20:25 -0,9 C 7,2 C -1,3 C -1,2 C -1,9 C 0,0 C 88 % 92 % 1006,7 hPa 0,0 l/m 0,0 km/h (0 Bft) SW 225 0 min -2,6 C -1,9 C 0,0 km/h (0 Bft)
02.12.2021 20:30 -0,9 C 7,2 C -1,3 C -1,2 C -1,9 C 0,0 C 88 % 92 % 1006,8 hPa 0,0 l/m 0,0 km/h (0 Bft) SW 225 0 min -2,6 C -1,9 C 0,0 km/h (0 Bft)
02.12.2021 20:35 -1,0 C 7,2 C -1,4 C -1,3 C -2,0 C 0,0 C 88 % 92 % 1006,8 hPa 0,0 l/m 0,0 km/h (0 Bft) SW 225 0 min -2,7 C -2,0 C 0,0 km/h (0 Bft)
02.12.2021 20:40 -0,9 C 7,2 C -1,5 C -1,3 C -2,0 C 0,0 C 88 % 92 % 1006,8 hPa 0,0 l/m 0,0 km/h (0 Bft) SW 225 0 min -2,6 C -2,0 C 0,0 km/h (0 Bft)
02.12.2021 20:45 -0,9 C 7,1 C -1,5 C -1,3 C -2,0 C 0,0 C 88 % 92 % 1006,8 hPa 0,0 l/m 0,0 km/h (0 Bft) SW 225 0 min -2,6 C -2,0 C 0,0 km/h (0 Bft)
02.12.2021 20:50 -1,0 C 7,1 C -1,4 C -1,3 C -1,9 C 0,0 C 88 % 92 % 1007,1 hPa 0,0 l/m 0,2 km/h (0 Bft) SW 225 0 min -2,7 C -1,9 C 1,6 km/h (1 Bft)
02.12.2021 20:55 -0,9 C 7,1 C -1,3 C -1,2 C -1,8 C 0,0 C 88 % 92 % 1007,1 hPa 0,0 l/m 0,2 km/h (0 Bft) SW 225 0 min -2,6 C -1,8 C 0,0 km/h (0 Bft)
02.12.2021 21:00 -0,9 C 7,1 C -1,2 C -1,2 C -1,7 C 0,0 C 88 % 92 % 1007,1 hPa 0,0 l/m 0,2 km/h (0 Bft) SW 225 0 min -2,6 C -1,7 C 0,0 km/h (0 Bft)
02.12.2021 21:05 -0,9 C 7,1 C -1,1 C -1,1 C -1,6 C 0,0 C 88 % 92 % 1007,1 hPa 0,0 l/m 0,2 km/h (0 Bft) SW 225 0 min -2,6 C -1,6 C 0,0 km/h (0 Bft)
02.12.2021 21:10 -0,9 C 7,1 C -1,1 C -1,1 C -1,6 C 0,0 C 88 % 92 % 1007,4 hPa 0,0 l/m 0,2 km/h (0 Bft) SW 225 0 min -2,6 C -1,6 C 0,0 km/h (0 Bft)
02.12.2021 21:15 -0,9 C 7,1 C -1,1 C -1,1 C -1,5 C 0,0 C 88 % 92 % 1007,4 hPa 0,0 l/m 0,0 km/h (0 Bft) SW 225 0 min -2,6 C -1,5 C 0,0 km/h (0 Bft)
02.12.2021 21:20 -0,9 C 7,1 C -1,1 C -1,1 C -1,5 C 0,0 C 88 % 92 % 1007,4 hPa 0,0 l/m 0,0 km/h (0 Bft) SW 225 0 min -2,6 C -1,5 C 0,0 km/h (0 Bft)
02.12.2021 21:25 -0,7 C 7,1 C -1,1 C -0,9 C -1,4 C 0,0 C 88 % 92 % 1007,4 hPa 0,0 l/m 0,0 km/h (0 Bft) SW 225 0 min -2,4 C -1,4 C 0,0 km/h (0 Bft)
02.12.2021 21:30 -0,8 C 7,1 C -1,1 C -1,0 C -1,4 C 0,0 C 88 % 92 % 1007,6 hPa 0,0 l/m 0,0 km/h (0 Bft) SW 225 0 min -2,5 C -1,4 C 0,0 km/h (0 Bft)
02.12.2021 21:35 -0,8 C 7,1 C -1,1 C -1,0 C -1,4 C 0,0 C 88 % 92 % 1007,6 hPa 0,0 l/m 0,0 km/h (0 Bft) SW 225 0 min -2,5 C -1,4 C 0,0 km/h (0 Bft)
02.12.2021 21:40 -0,8 C 7,1 C -1,1 C -1,0 C -1,4 C 0,0 C 88 % 92 % 1007,6 hPa 0,0 l/m 0,0 km/h (0 Bft) SW 225 0 min -2,5 C -1,4 C 0,0 km/h (0 Bft)
02.12.2021 21:45 -0,7 C 7,1 C -1,2 C -1,0 C -1,5 C 0,0 C 88 % 92 % 1007,6 hPa 0,0 l/m 0,0 km/h (0 Bft) SW 225 0 min -2,4 C -1,5 C 0,0 km/h (0 Bft)
02.12.2021 21:50 -0,7 C 7,1 C -1,2 C -1,0 C -1,6 C 0,0 C 88 % 92 % 1008,0 hPa 0,0 l/m 0,2 km/h (0 Bft) SW 225 0 min -2,4 C -1,6 C 0,0 km/h (0 Bft)
02.12.2021 21:55 -0,8 C 7,0 C -1,2 C -1,1 C -1,6 C 0,0 C 88 % 92 % 1008,0 hPa 0,0 l/m 0,2 km/h (0 Bft) SW 225 0 min -2,5 C -1,6 C 0,0 km/h (0 Bft)
02.12.2021 22:00 -0,8 C 7,1 C -1,3 C -1,1 C -1,8 C 0,0 C 88 % 92 % 1008,0 hPa 0,0 l/m 0,2 km/h (0 Bft) SW 225 0 min -2,5 C -1,8 C 0,0 km/h (0 Bft)
02.12.2021 22:05 -0,9 C 7,1 C -1,6 C -1,3 C -2,0 C 0,0 C 88 % 92 % 1008,0 hPa 0,0 l/m 0,0 km/h (0 Bft) SW 225 0 min -2,6 C -2,0 C 0,0 km/h (0 Bft)
02.12.2021 22:10 -0,9 C 7,1 C -1,7 C -1,3 C -2,2 C 0,0 C 88 % 92 % 1007,9 hPa 0,0 l/m 0,0 km/h (0 Bft) SW 225 0 min -2,6 C -2,2 C 1,6 km/h (1 Bft)
02.12.2021 22:15 -0,9 C 7,0 C -1,7 C -1,3 C -2,2 C 0,0 C 88 % 92 % 1007,9 hPa 0,0 l/m 0,2 km/h (0 Bft) SW 225 0 min -2,6 C -2,2 C 0,0 km/h (0 Bft)
02.12.2021 22:20 -0,9 C 7,0 C -1,7 C -1,4 C -2,3 C 0,0 C 88 % 92 % 1007,9 hPa 0,0 l/m 0,2 km/h (0 Bft) SW 225 0 min -2,6 C -2,3 C 0,0 km/h (0 Bft)
02.12.2021 22:25 -0,9 C 7,0 C -1,9 C -1,4 C -2,3 C 0,0 C 88 % 92 % 1007,9 hPa 0,0 l/m 0,0 km/h (0 Bft) SW 225 0 min -2,6 C -2,3 C 0,0 km/h (0 Bft)
02.12.2021 22:30 -1,1 C 7,0 C -2,0 C -1,5 C -2,3 C 0,0 C 88 % 92 % 1008,1 hPa 0,0 l/m 0,0 km/h (0 Bft) SW 225 0 min -2,8 C -2,3 C 0,0 km/h (0 Bft)
02.12.2021 22:35 -1,2 C 7,0 C -1,9 C -1,6 C -2,3 C 0,0 C 88 % 92 % 1008,1 hPa 0,0 l/m 0,0 km/h (0 Bft) SW 225 0 min -2,9 C -2,3 C 0,0 km/h (0 Bft)
02.12.2021 22:40 -1,2 C 7,0 C -1,8 C -1,5 C -2,1 C 0,0 C 88 % 93 % 1008,1 hPa 0,0 l/m 0,0 km/h (0 Bft) SW 225 0 min -2,9 C -2,1 C 0,0 km/h (0 Bft)
02.12.2021 22:45 -1,2 C 7,0 C -1,8 C -1,5 C -2,0 C 0,0 C 88 % 93 % 1008,1 hPa 0,0 l/m 0,0 km/h (0 Bft) SW 225 0 min -2,9 C -2,0 C 0,0 km/h (0 Bft)
02.12.2021 22:50 -1,2 C 7,0 C -1,9 C -1,5 C -2,0 C 0,0 C 88 % 93 % 1008,4 hPa 0,0 l/m 0,0 km/h (0 Bft) SW 225 0 min -2,9 C -2,0 C 0,0 km/h (0 Bft)
02.12.2021 22:55 -1,2 C 7,0 C -2,0 C -1,6 C -2,3 C 0,0 C 88 % 93 % 1008,4 hPa 0,0 l/m 0,0 km/h (0 Bft) SW 225 0 min -2,9 C -2,3 C 0,0 km/h (0 Bft)
02.12.2021 23:00 -1,1 C 7,0 C -2,1 C -1,5 C -2,4 C 0,0 C 88 % 93 % 1008,4 hPa 0,0 l/m 0,0 km/h (0 Bft) SW 225 0 min -2,8 C -2,4 C 0,0 km/h (0 Bft)
02.12.2021 23:05 -1,3 C 7,0 C -2,2 C -1,7 C -2,5 C 0,0 C 88 % 93 % 1008,4 hPa 0,0 l/m 0,0 km/h (0 Bft) SW 225 0 min -3,0 C -2,5 C 0,0 km/h (0 Bft)
02.12.2021 23:10 -1,3 C 7,0 C -2,2 C -1,8 C -2,7 C 0,0 C 88 % 93 % 1009,2 hPa 0,0 l/m 0,0 km/h (0 Bft) SW 225 0 min -3,0 C -2,7 C 0,0 km/h (0 Bft)
02.12.2021 23:15 -1,3 C 7,0 C -2,5 C -1,8 C -2,8 C 0,0 C 88 % 92 % 1009,2 hPa 0,0 l/m 0,0 km/h (0 Bft) SW 225 0 min -3,0 C -2,8 C 0,0 km/h (0 Bft)
02.12.2021 23:20 -1,5 C 7,0 C -2,5 C -1,9 C -2,7 C 0,0 C 88 % 92 % 1009,2 hPa 0,0 l/m 0,0 km/h (0 Bft) SW 225 0 min -3,2 C -2,7 C 0,0 km/h (0 Bft)
02.12.2021 23:25 -1,5 C 7,0 C -2,5 C -1,9 C -2,8 C 0,0 C 88 % 92 % 1009,2 hPa 0,0 l/m 0,0 km/h (0 Bft) SW 225 0 min -3,2 C -2,8 C 0,0 km/h (0 Bft)
02.12.2021 23:30 -1,5 C 7,0 C -2,5 C -1,9 C -2,6 C 0,0 C 88 % 93 % 1009,3 hPa 0,0 l/m 0,0 km/h (0 Bft) SW 225 0 min -3,2 C -2,6 C 1,6 km/h (1 Bft)
02.12.2021 23:35 -1,5 C 7,0 C -2,5 C -1,8 C -2,5 C 0,0 C 88 % 93 % 1009,3 hPa 0,0 l/m 0,0 km/h (0 Bft) SW 225 0 min -3,2 C -2,5 C 0,0 km/h (0 Bft)
02.12.2021 23:40 -1,5 C 6,9 C -2,5 C -1,8 C -2,5 C 0,0 C 89 % 93 % 1009,3 hPa 0,0 l/m 0,0 km/h (0 Bft) SW 225 0 min -3,1 C -2,5 C 0,0 km/h (0 Bft)
02.12.2021 23:45 -1,6 C 6,9 C -2,5 C -1,9 C -2,5 C 0,0 C 88 % 93 % 1009,3 hPa 0,0 l/m 0,0 km/h (0 Bft) SW 225 0 min -3,3 C -2,5 C 0,0 km/h (0 Bft)
02.12.2021 23:50 -1,6 C 6,9 C -2,6 C -1,9 C -2,6 C 0,0 C 88 % 93 % 1008,9 hPa 0,0 l/m 0,0 km/h (0 Bft) SW 225 0 min -3,3 C -2,6 C 0,0 km/h (0 Bft)
02.12.2021 23:55 -1,7 C 6,9 C -2,8 C -2,1 C -2,8 C 0,0 C 89 % 93 % 1008,9 hPa 0,0 l/m 0,0 km/h (0 Bft) SW 225 0 min -3,3 C -2,8 C 0,0 km/h (0 Bft)
_ Min-Zeit 23:55 23:40 23:55 23:55 23:15 00:00 12:50 12:25 00:00 - 14:20 - - - 23:45 05:40 12:05
Minimum _ -1,7 C 6,9 C -2,8 C -2,1 C -2,8 C 0,0 C 70 % 75 % 995,1 hPa - 0,0 km/h (0 Bft) - - - -3,3 C -3,2 C 0,0 km/h (0 Bft)
_ Max-Zeit 01:30 00:00 12:35 12:25 12:25 12:25 23:40 22:40 23:30 00:00 01:35 - - 00:00 01:05 12:25 01:30
Maximum _ 5,7 C 7,9 C 4,9 C 7,3 C 7,3 C 2,4 C 89 % 93 % 1009,3 hPa 0,0 l/m 13,7 km/h
W-SW (3 Bft)
- - 0 min 3,0 C 7,3 C 25,3 km/h
SW (4 Bft)
Durchschnitt _ 2,6 C 7,3 C 2,0 C 2,4 C 1,5 C 0,2 C 81 % 87 % 1001,2 hPa #0,0 l/m 4,4 km/h (1 Bft) SW - #0 min. -0,3 C 0,3 C 5,5 km/h (1 Bft)
2021 www.wetterstation-wechselburg.de